sat.trackr.live / text

‹ back to catalog

ORBCOMM FM116

NORAD 41189 · 2015-081L

PAYLOAD ACTIVE UNKNOWN

§ Identity

Operator
Country
ORB
Launch date
2015-12-22
Launch site
AFETR
Launch vehicle
Mass (kg)
RCS (m²)
0.55

Purposes: comms

External: N2YO · Heavens-Above · Gunter

§ Orbital elements

Epoch: 2026-09-10T05:20:00.220992Z

Period
98.70 min
Inclination
47.0013°
Eccentricity
0.0000461
Mean motion
14.58954283 rev/d
Perigee alt
696.2 km
Apogee alt
696.9 km
Semi-major
7,074.7 km
B*
8.3008e-5
RAAN
228.5313°
Arg perigee
57.0080°
Mean anomaly
303.0850°
Rev number
57,135

§ Raw data

ORBCOMM FM1161 41189U 15081L   26253.22222478  .00000222  00000+0  83008-4 0  99932 41189  47.0013 228.5313 0000461  57.0080 303.0850 14.58954283571354

JSON: /api/v1/satellites/41189 · /tle

For live sub-satellite position, see the globe view (requires WebGL).

§ Visibility from observer

Set your observer location to see the next 7 days of passes ≥ 10°. The values pass through the URL so the page stays shareable.

No JS? Fill the form by hand. The geolocation button needs JavaScript.

§ Radio — SatNOGS DB

ModeDescriptionDownlinkUplink
FM Telemetry 137.663 MHz
FM Telemetry 137.800 MHz

2 transmitters · refreshed weekly from db.satnogs.org